{"data":{"norad_id":64805,"epoch":"2026-05-24T17:26:25.526112Z","epoch_age_seconds":101803,"freshness":"FRESH","line1":"1 64805U 25150R   26144.72668433  .00002822  00000+0  24414-3 0  9993","line2":"2 64805  70.0008 302.8494 0002317 271.0183  89.0711 14.98335678 47905","mean_motion":14.98335678,"eccentricity":0.0002317,"inclination_deg":70.0008,"raan_deg":302.8494,"arg_perigee_deg":271.0183,"mean_anomaly_deg":89.0711,"bstar":0.00024414,"rev_number":4790,"period_min":96.106634924567,"perigee_km":570.42797662876,"apogee_km":573.64868787773,"semimajor_km":6950.1753322532,"source":"CELESTRAK","updated_at":"2026-05-25T13:38:20.567296Z"}}